Time,TemperatureF,DewpointF,PressureIn,WindDirection,WindDirectionDegrees,WindSpeedMPH,WindSpeedGustMPH,Humidity,HourlyPrecipIn,Conditions,Clouds,dailyrainin,SoftwareType,DateUTC
2013-01-14 00:00:00,-10.0,-99.9,-100.00,West,265,6.0,8.0,-999,0.00,,,-99.99,,2013-01-14 07:00:00,
2013-01-14 00:33:00,-10.0,-99.9,-100.00,West,265,6.0,8.0,-999,0.00,,,-99.99,,2013-01-14 07:33:00,
2013-01-14 00:43:00,-10.0,-99.9,-100.00,West,265,6.0,8.0,-999,0.00,,,-99.99,,2013-01-14 07:43:00,
2013-01-14 00:53:00,-10.0,-99.9,-100.00,West,265,6.0,8.0,-999,0.00,,,-99.99,,2013-01-14 07:53:00,
2013-01-14 01:00:00,-10.0,-99.9,-100.00,West,265,6.0,8.0,-999,0.00,,,-99.99,,2013-01-14 08:00:00,
2013-01-14 01:33:00,-10.0,-99.9,-100.00,West,265,6.0,8.0,-999,0.00,,,-99.99,,2013-01-14 08:33:00,
2013-01-14 01:43:00,-10.0,-99.9,-100.00,West,265,6.0,8.0,-999,0.00,,,-99.99,,2013-01-14 08:43:00,
2013-01-14 01:53:00,-10.0,-99.9,-100.00,West,265,6.0,8.0,-999,0.00,,,-99.99,,2013-01-14 08:53:00,
2013-01-14 02:00:00,-10.0,-99.9,-100.00,WSW,253,5.0,8.0,-999,0.00,,,-99.99,,2013-01-14 09:00:00,
2013-01-14 02:34:00,-10.0,-99.9,-100.00,WSW,253,5.0,8.0,-999,0.00,,,-99.99,,2013-01-14 09:34:00,
2013-01-14 02:43:00,-10.0,-99.9,-100.00,WSW,253,5.0,8.0,-999,0.00,,,-99.99,,2013-01-14 09:43:00,
2013-01-14 02:53:00,-10.0,-99.9,-100.00,WSW,253,5.0,8.0,-999,0.00,,,-99.99,,2013-01-14 09:53:00,
2013-01-14 03:00:00,-11.0,-99.9,-100.00,West,264,6.0,8.0,-999,0.00,,,-99.99,,2013-01-14 10:00:00,
2013-01-14 03:33:00,-11.0,-99.9,-100.00,West,264,6.0,8.0,-999,0.00,,,-99.99,,2013-01-14 10:33:00,
2013-01-14 03:43:00,-11.0,-99.9,-100.00,West,264,6.0,8.0,-999,0.00,,,-99.99,,2013-01-14 10:43:00,
2013-01-14 03:53:00,-11.0,-99.9,-100.00,West,264,6.0,8.0,-999,0.00,,,-99.99,,2013-01-14 10:53:00,
2013-01-14 04:00:00,-12.0,-99.9,-100.00,West,268,6.0,7.0,-999,0.00,,,-99.99,,2013-01-14 11:00:00,
2013-01-14 04:33:00,-12.0,-99.9,-100.00,West,268,6.0,7.0,-999,0.00,,,-99.99,,2013-01-14 11:33:00,
2013-01-14 04:43:00,-12.0,-99.9,-100.00,West,268,6.0,7.0,-999,0.00,,,-99.99,,2013-01-14 11:43:00,
2013-01-14 04:53:00,-12.0,-99.9,-100.00,West,268,6.0,7.0,-999,0.00,,,-99.99,,2013-01-14 11:53:00,
2013-01-14 05:00:00,-12.0,-99.9,-100.00,West,268,6.0,9.0,-999,0.00,,,-99.99,,2013-01-14 12:00:00,
2013-01-14 05:33:00,-12.0,-99.9,-100.00,West,268,6.0,9.0,-999,0.00,,,-99.99,,2013-01-14 12:33:00,
2013-01-14 05:43:00,-12.0,-99.9,-100.00,West,268,6.0,9.0,-999,0.00,,,-99.99,,2013-01-14 12:43:00,
2013-01-14 05:53:00,-12.0,-99.9,-100.00,West,268,6.0,9.0,-999,0.00,,,-99.99,,2013-01-14 12:53:00,
2013-01-14 06:00:00,-12.0,-99.9,-100.00,West,275,7.0,9.0,-999,0.00,,,-99.99,,2013-01-14 13:00:00,
2013-01-14 06:34:00,-12.0,-99.9,-100.00,West,275,7.0,9.0,-999,0.00,,,-99.99,,2013-01-14 13:34:00,
2013-01-14 06:43:00,-12.0,-99.9,-100.00,West,275,7.0,9.0,-999,0.00,,,-99.99,,2013-01-14 13:43:00,
2013-01-14 06:53:00,-12.0,-99.9,-100.00,West,275,7.0,9.0,-999,0.00,,,-99.99,,2013-01-14 13:53:00,
2013-01-14 07:00:00,-12.0,-99.9,-100.00,WNW,283,8.0,9.0,-999,0.00,,,-99.99,,2013-01-14 14:00:00,
2013-01-14 07:33:00,-12.0,-99.9,-100.00,WNW,283,8.0,9.0,-999,0.00,,,-99.99,,2013-01-14 14:33:00,
2013-01-14 07:43:00,-12.0,-99.9,-100.00,WNW,283,8.0,9.0,-999,0.00,,,-99.99,,2013-01-14 14:43:00,
2013-01-14 07:53:00,-12.0,-99.9,-100.00,WNW,283,8.0,9.0,-999,0.00,,,-99.99,,2013-01-14 14:53:00,
2013-01-14 08:00:00,-13.0,-99.9,-100.00,WNW,285,6.0,9.0,-999,0.00,,,-99.99,,2013-01-14 15:00:00,
2013-01-14 08:34:00,-13.0,-99.9,-100.00,WNW,285,6.0,9.0,-999,0.00,,,-99.99,,2013-01-14 15:34:00,
2013-01-14 08:43:00,-13.0,-99.9,-100.00,WNW,285,6.0,9.0,-999,0.00,,,-99.99,,2013-01-14 15:43:00,
2013-01-14 08:54:00,-13.0,-99.9,-100.00,WNW,285,6.0,9.0,-999,0.00,,,-99.99,,2013-01-14 15:54:00,
2013-01-14 09:00:00,-12.0,-99.9,-100.00,West,272,6.0,9.0,-999,0.00,,,-99.99,,2013-01-14 16:00:00,
2013-01-14 09:33:00,-12.0,-99.9,-100.00,West,272,6.0,9.0,-999,0.00,,,-99.99,,2013-01-14 16:33:00,
2013-01-14 09:43:00,-12.0,-99.9,-100.00,West,272,6.0,9.0,-999,0.00,,,-99.99,,2013-01-14 16:43:00,
2013-01-14 09:54:00,-12.0,-99.9,-100.00,West,272,6.0,9.0,-999,0.00,,,-99.99,,2013-01-14 16:54:00,
2013-01-14 10:00:00,-10.0,-99.9,-100.00,West,262,3.0,7.0,-999,0.00,,,-99.99,,2013-01-14 17:00:00,
2013-01-14 10:34:00,-10.0,-99.9,-100.00,West,262,3.0,7.0,-999,0.00,,,-99.99,,2013-01-14 17:34:00,
2013-01-14 10:44:00,-10.0,-99.9,-100.00,West,262,3.0,7.0,-999,0.00,,,-99.99,,2013-01-14 17:44:00,
2013-01-14 10:54:00,-10.0,-99.9,-100.00,West,262,3.0,7.0,-999,0.00,,,-99.99,,2013-01-14 17:54:00,
2013-01-14 11:00:00,-8.0,-99.9,-100.00,WSW,250,3.0,6.0,-999,0.00,,,-99.99,,2013-01-14 18:00:00,
2013-01-14 11:33:00,-8.0,-99.9,-100.00,WSW,250,3.0,6.0,-999,0.00,,,-99.99,,2013-01-14 18:33:00,
2013-01-14 11:43:00,-8.0,-99.9,-100.00,WSW,250,3.0,6.0,-999,0.00,,,-99.99,,2013-01-14 18:43:00,
2013-01-14 11:53:00,-8.0,-99.9,-100.00,WSW,250,3.0,6.0,-999,0.00,,,-99.99,,2013-01-14 18:53:00,
2013-01-14 12:00:00,-7.0,-99.9,-100.00,SW,236,2.0,5.0,-999,0.00,,,-99.99,,2013-01-14 19:00:00,
2013-01-14 12:33:00,-7.0,-99.9,-100.00,SW,236,2.0,5.0,-999,0.00,,,-99.99,,2013-01-14 19:33:00,
2013-01-14 12:43:00,-7.0,-99.9,-100.00,SW,236,2.0,5.0,-999,0.00,,,-99.99,,2013-01-14 19:43:00,
2013-01-14 12:53:00,-7.0,-99.9,-100.00,SW,236,2.0,5.0,-999,0.00,,,-99.99,,2013-01-14 19:53:00,
2013-01-14 13:00:00,-6.0,-99.9,-100.00,WSW,241,3.0,6.0,-999,0.00,,,-99.99,,2013-01-14 20:00:00,
2013-01-14 13:34:00,-6.0,-99.9,-100.00,WSW,241,3.0,6.0,-999,0.00,,,-99.99,,2013-01-14 20:34:00,
2013-01-14 13:43:00,-6.0,-99.9,-100.00,WSW,241,3.0,6.0,-999,0.00,,,-99.99,,2013-01-14 20:43:00,
2013-01-14 13:53:00,-6.0,-99.9,-100.00,WSW,241,3.0,6.0,-999,0.00,,,-99.99,,2013-01-14 20:53:00,
2013-01-14 14:00:00,-5.0,-99.9,-100.00,SW,235,3.0,7.0,-999,0.00,,,-99.99,,2013-01-14 21:00:00,
2013-01-14 14:33:00,-5.0,-99.9,-100.00,SW,235,3.0,7.0,-999,0.00,,,-99.99,,2013-01-14 21:33:00,
2013-01-14 14:43:00,-5.0,-99.9,-100.00,SW,235,3.0,7.0,-999,0.00,,,-99.99,,2013-01-14 21:43:00,
2013-01-14 14:54:00,-5.0,-99.9,-100.00,SW,235,3.0,7.0,-999,0.00,,,-99.99,,2013-01-14 21:54:00,
2013-01-14 15:00:00,-5.0,-99.9,-100.00,WSW,238,3.0,6.0,-999,0.00,,,-99.99,,2013-01-14 22:00:00,
2013-01-14 15:33:00,-5.0,-99.9,-100.00,WSW,238,3.0,6.0,-999,0.00,,,-99.99,,2013-01-14 22:33:00,
2013-01-14 15:43:00,-5.0,-99.9,-100.00,WSW,238,3.0,6.0,-999,0.00,,,-99.99,,2013-01-14 22:43:00,
2013-01-14 15:53:00,-5.0,-99.9,-100.00,WSW,238,3.0,6.0,-999,0.00,,,-99.99,,2013-01-14 22:53:00,
2013-01-14 17:00:00,-9.0,-99.9,-100.00,West,265,4.0,9.0,-999,0.00,,,-99.99,,2013-01-15 00:00:00,
2013-01-14 17:33:00,-9.0,-99.9,-100.00,West,265,4.0,9.0,-999,0.00,,,-99.99,,2013-01-15 00:33:00,
2013-01-14 17:43:00,-9.0,-99.9,-100.00,West,265,4.0,9.0,-999,0.00,,,-99.99,,2013-01-15 00:43:00,
2013-01-14 17:53:00,-9.0,-99.9,-100.00,West,265,4.0,9.0,-999,0.00,,,-99.99,,2013-01-15 00:53:00,
2013-01-14 18:00:00,-10.0,-99.9,-100.00,WSW,254,8.0,11.0,-999,0.00,,,-99.99,,2013-01-15 01:00:00,
2013-01-14 18:33:00,-10.0,-99.9,-100.00,WSW,254,8.0,11.0,-999,0.00,,,-99.99,,2013-01-15 01:33:00,
2013-01-14 18:43:00,-10.0,-99.9,-100.00,WSW,254,8.0,11.0,-999,0.00,,,-99.99,,2013-01-15 01:43:00,
2013-01-14 18:53:00,-10.0,-99.9,-100.00,WSW,254,8.0,11.0,-999,0.00,,,-99.99,,2013-01-15 01:53:00,
2013-01-14 19:00:00,-8.0,-99.9,-100.00,WSW,254,9.0,12.0,-999,0.00,,,-99.99,,2013-01-15 02:00:00,
2013-01-14 19:33:00,-8.0,-99.9,-100.00,WSW,254,9.0,12.0,-999,0.00,,,-99.99,,2013-01-15 02:33:00,
2013-01-14 19:43:00,-8.0,-99.9,-100.00,WSW,254,9.0,12.0,-999,0.00,,,-99.99,,2013-01-15 02:43:00,
2013-01-14 19:53:00,-8.0,-99.9,-100.00,WSW,254,9.0,12.0,-999,0.00,,,-99.99,,2013-01-15 02:53:00,
2013-01-14 20:00:00,-7.0,-99.9,-100.00,WSW,252,8.0,14.0,-999,0.00,,,-99.99,,2013-01-15 03:00:00,
2013-01-14 20:33:00,-7.0,-99.9,-100.00,WSW,252,8.0,14.0,-999,0.00,,,-99.99,,2013-01-15 03:33:00,
2013-01-14 20:43:00,-7.0,-99.9,-100.00,WSW,252,8.0,14.0,-999,0.00,,,-99.99,,2013-01-15 03:43:00,
2013-01-14 20:53:00,-7.0,-99.9,-100.00,WSW,252,8.0,14.0,-999,0.00,,,-99.99,,2013-01-15 03:53:00,
2013-01-14 21:00:00,-5.0,-99.9,-100.00,WSW,249,8.0,14.0,-999,0.00,,,-99.99,,2013-01-15 04:00:00,
2013-01-14 21:33:00,-5.0,-99.9,-100.00,WSW,249,8.0,14.0,-999,0.00,,,-99.99,,2013-01-15 04:33:00,
2013-01-14 21:43:00,-5.0,-99.9,-100.00,WSW,249,8.0,14.0,-999,0.00,,,-99.99,,2013-01-15 04:43:00,
2013-01-14 21:53:00,-5.0,-99.9,-100.00,WSW,249,8.0,14.0,-999,0.00,,,-99.99,,2013-01-15 04:53:00,
2013-01-14 22:00:00,-5.0,-99.9,-100.00,WSW,248,9.0,15.0,-999,0.00,,,-99.99,,2013-01-15 05:00:00,
2013-01-14 22:33:00,-5.0,-99.9,-100.00,WSW,248,9.0,15.0,-999,0.00,,,-99.99,,2013-01-15 05:33:00,
2013-01-14 22:43:00,-5.0,-99.9,-100.00,WSW,248,9.0,15.0,-999,0.00,,,-99.99,,2013-01-15 05:43:00,
2013-01-14 22:53:00,-5.0,-99.9,-100.00,WSW,248,9.0,15.0,-999,0.00,,,-99.99,,2013-01-15 05:53:00,
2013-01-14 23:00:00,-5.0,-99.9,-100.00,WSW,251,9.0,15.0,-999,0.00,,,-99.99,,2013-01-15 06:00:00,
2013-01-14 23:33:00,-5.0,-99.9,-100.00,WSW,251,9.0,15.0,-999,0.00,,,-99.99,,2013-01-15 06:33:00,
2013-01-14 23:43:00,-5.0,-99.9,-100.00,WSW,251,9.0,15.0,-999,0.00,,,-99.99,,2013-01-15 06:43:00,
2013-01-14 23:53:00,-5.0,-99.9,-100.00,WSW,251,9.0,15.0,-999,0.00,,,-99.99,,2013-01-15 06:53:00,